Time,TemperatureF,DewpointF,PressureIn,WindDirection,WindDirectionDegrees,WindSpeedMPH,WindSpeedGustMPH,Humidity,HourlyPrecipIn,Conditions,Clouds,dailyrainin,SoftwareType,DateUTC
2013-03-08 00:01:00,21.0,20.0,-100.00,NE,54,0.0,4.0,96,-99.99,,,-99.99,,2013-03-08 07:01:00,
2013-03-08 00:11:00,21.0,20.0,-100.00,NE,54,0.0,4.0,96,-99.99,,,-99.99,,2013-03-08 07:11:00,
2013-03-08 00:22:00,21.0,20.0,-100.00,NE,54,0.0,4.0,96,-99.99,,,-99.99,,2013-03-08 07:22:00,
2013-03-08 00:31:00,20.0,19.0,-100.00,NE,54,3.0,6.0,97,-99.99,,,-99.99,,2013-03-08 07:31:00,
2013-03-08 00:42:00,20.0,19.0,-100.00,NE,54,3.0,6.0,97,-99.99,,,-99.99,,2013-03-08 07:42:00,
2013-03-08 00:52:00,20.0,19.0,-100.00,ENE,61,3.0,5.0,97,-99.99,,,-99.99,,2013-03-08 07:52:00,
2013-03-08 01:01:00,19.0,19.0,-100.00,ENE,71,0.0,4.0,98,-99.99,,,-99.99,,2013-03-08 08:01:00,
2013-03-08 01:11:00,19.0,19.0,-100.00,ENE,71,0.0,4.0,98,-99.99,,,-99.99,,2013-03-08 08:11:00,
2013-03-08 01:21:00,18.0,18.0,-100.00,ESE,106,7.0,8.0,98,-99.99,,,-99.99,,2013-03-08 08:21:00,
2013-03-08 01:32:00,18.0,18.0,-100.00,East,88,6.0,8.0,99,-99.99,,,-99.99,,2013-03-08 08:32:00,
2013-03-08 01:41:00,18.0,18.0,-100.00,East,88,6.0,8.0,99,-99.99,,,-99.99,,2013-03-08 08:41:00,
2013-03-08 01:52:00,18.0,18.0,-100.00,East,88,6.0,8.0,99,-99.99,,,-99.99,,2013-03-08 08:52:00,
2013-03-08 02:03:00,17.0,17.0,-100.00,East,87,5.0,6.0,98,-99.99,,,-99.99,,2013-03-08 09:03:00,
2013-03-08 02:10:00,17.0,17.0,-100.00,ENE,68,0.0,0.0,98,-99.99,,,-99.99,,2013-03-08 09:10:00,
2013-03-08 02:11:00,17.0,17.0,-100.00,East,87,5.0,6.0,98,-99.99,,,-99.99,,2013-03-08 09:11:00,
2013-03-08 02:21:00,17.0,17.0,-100.00,East,87,5.0,6.0,98,-99.99,,,-99.99,,2013-03-08 09:21:00,
2013-03-08 02:32:00,17.0,17.0,-100.00,ENE,68,0.0,0.0,98,-99.99,,,-99.99,,2013-03-08 09:32:00,
2013-03-08 02:42:00,17.0,17.0,-100.00,ENE,68,0.0,0.0,98,-99.99,,,-99.99,,2013-03-08 09:42:00,
2013-03-08 02:52:00,17.0,17.0,-100.00,ENE,68,0.0,0.0,98,-99.99,,,-99.99,,2013-03-08 09:52:00,
2013-03-08 03:01:00,17.0,17.0,-100.00,ENE,68,0.0,0.0,98,-99.99,,,-99.99,,2013-03-08 10:01:00,
2013-03-08 03:30:00,17.0,16.0,-100.00,ENE,59,0.0,0.0,97,-99.99,,,-99.99,,2013-03-08 10:30:00,
2013-03-08 03:32:00,17.0,16.0,-100.00,NE,49,0.0,0.0,97,-99.99,,,-99.99,,2013-03-08 10:32:00,
2013-03-08 03:42:00,17.0,16.0,-100.00,NE,49,0.0,0.0,97,-99.99,,,-99.99,,2013-03-08 10:42:00,
2013-03-08 03:52:00,17.0,16.0,-100.00,ENE,59,0.0,0.0,97,-99.99,,,-99.99,,2013-03-08 10:52:00,
2013-03-08 04:01:00,17.0,16.0,-100.00,ENE,59,0.0,0.0,97,-99.99,,,-99.99,,2013-03-08 11:01:00,
2013-03-08 04:11:00,17.0,16.0,-100.00,ENE,59,0.0,0.0,97,-99.99,,,-99.99,,2013-03-08 11:11:00,
2013-03-08 04:21:00,17.0,16.0,-100.00,ENE,59,0.0,0.0,97,-99.99,,,-99.99,,2013-03-08 11:21:00,
2013-03-08 06:01:00,15.0,15.0,-100.00,ENE,66,0.0,0.0,98,-99.99,,,-99.99,,2013-03-08 13:01:00,
2013-03-08 06:11:00,15.0,15.0,-100.00,ENE,66,0.0,0.0,98,-99.99,,,-99.99,,2013-03-08 13:11:00,
2013-03-08 06:22:00,15.0,15.0,-100.00,ENE,60,0.0,0.0,98,-99.99,,,-99.99,,2013-03-08 13:22:00,
2013-03-08 06:32:00,15.0,15.0,-100.00,NE,43,0.0,5.0,98,-99.99,,,-99.99,,2013-03-08 13:32:00,
2013-03-08 06:42:00,15.0,15.0,-100.00,NE,43,0.0,5.0,98,-99.99,,,-99.99,,2013-03-08 13:42:00,
2013-03-08 06:52:00,15.0,15.0,-100.00,ENE,61,0.0,6.0,98,-99.99,,,-99.99,,2013-03-08 13:52:00,
2013-03-08 07:02:00,15.0,15.0,-100.00,ENE,61,0.0,6.0,98,-99.99,,,-99.99,,2013-03-08 14:02:00,
2013-03-08 07:11:00,15.0,15.0,-100.00,ENE,61,0.0,6.0,98,-99.99,,,-99.99,,2013-03-08 14:11:00,
2013-03-08 07:22:00,15.0,15.0,-100.00,ENE,67,0.0,0.0,98,-99.99,,,-99.99,,2013-03-08 14:22:00,
2013-03-08 07:32:00,15.0,15.0,-100.00,ENE,67,0.0,0.0,98,-99.99,,,-99.99,,2013-03-08 14:32:00,
2013-03-08 07:42:00,15.0,15.0,-100.00,ENE,67,0.0,0.0,98,-99.99,,,-99.99,,2013-03-08 14:42:00,
2013-03-08 07:52:00,15.0,15.0,-100.00,ENE,67,0.0,0.0,98,-99.99,,,-99.99,,2013-03-08 14:52:00,
2013-03-08 08:03:00,16.0,15.0,-100.00,ENE,67,0.0,0.0,97,-99.99,,,-99.99,,2013-03-08 15:03:00,
2013-03-08 08:11:00,16.0,15.0,-100.00,ENE,67,0.0,0.0,97,-99.99,,,-99.99,,2013-03-08 15:11:00,
2013-03-08 08:22:00,16.0,15.0,-100.00,ENE,67,0.0,0.0,97,-99.99,,,-99.99,,2013-03-08 15:22:00,
2013-03-08 08:32:00,16.0,15.0,-100.00,ENE,67,0.0,0.0,97,-99.99,,,-99.99,,2013-03-08 15:32:00,
2013-03-08 08:42:00,16.0,15.0,-100.00,ENE,67,0.0,0.0,97,-99.99,,,-99.99,,2013-03-08 15:42:00,
2013-03-08 08:52:00,18.0,17.0,-100.00,ENE,71,0.0,0.0,96,-99.99,,,-99.99,,2013-03-08 15:52:00,
2013-03-08 09:01:00,18.0,17.0,-100.00,ENE,71,0.0,0.0,96,-99.99,,,-99.99,,2013-03-08 16:01:00,
2013-03-08 09:11:00,18.0,17.0,-100.00,ENE,71,0.0,0.0,96,-99.99,,,-99.99,,2013-03-08 16:11:00,
2013-03-08 09:21:00,19.0,18.0,-100.00,East,80,0.0,0.0,95,-99.99,,,-99.99,,2013-03-08 16:21:00,
2013-03-08 09:32:00,19.0,18.0,-100.00,ENE,63,0.0,4.0,95,-99.99,,,-99.99,,2013-03-08 16:32:00,
2013-03-08 09:40:00,21.0,20.0,-100.00,East,92,0.0,0.0,94,-99.99,,,-99.99,,2013-03-08 16:40:00,
2013-03-08 09:42:00,19.0,18.0,-100.00,ENE,63,0.0,4.0,95,-99.99,,,-99.99,,2013-03-08 16:42:00,
2013-03-08 09:52:00,20.0,19.0,-100.00,ENE,74,0.0,0.0,94,-99.99,,,-99.99,,2013-03-08 16:52:00,
2013-03-08 10:02:00,21.0,20.0,-100.00,East,92,0.0,0.0,94,-99.99,,,-99.99,,2013-03-08 17:02:00,
2013-03-08 10:11:00,21.0,20.0,-100.00,East,92,0.0,0.0,94,-99.99,,,-99.99,,2013-03-08 17:11:00,
2013-03-08 10:21:00,21.0,20.0,-100.00,East,92,0.0,0.0,94,-99.99,,,-99.99,,2013-03-08 17:21:00,
2013-03-08 10:32:00,21.0,20.0,-100.00,East,92,0.0,0.0,94,-99.99,,,-99.99,,2013-03-08 17:32:00,
2013-03-08 11:22:00,23.0,21.0,-100.00,East,84,3.0,5.0,93,-99.99,,,-99.99,,2013-03-08 18:22:00,
2013-03-08 11:32:00,23.0,21.0,-100.00,East,84,3.0,5.0,93,-99.99,,,-99.99,,2013-03-08 18:32:00,
2013-03-08 11:42:00,23.0,21.0,-100.00,East,84,3.0,5.0,93,-99.99,,,-99.99,,2013-03-08 18:42:00,
2013-03-08 11:52:00,24.0,22.0,-100.00,East,90,0.0,6.0,93,-99.99,,,-99.99,,2013-03-08 18:52:00,
2013-03-08 12:01:00,25.0,23.0,-100.00,ENE,60,0.0,5.0,93,-99.99,,,-99.99,,2013-03-08 19:01:00,
2013-03-08 12:11:00,25.0,23.0,-100.00,ENE,60,0.0,5.0,93,-99.99,,,-99.99,,2013-03-08 19:11:00,
2013-03-08 12:21:00,25.0,23.0,-100.00,ENE,60,0.0,0.0,93,-99.99,,,-99.99,,2013-03-08 19:21:00,
2013-03-08 12:32:00,25.0,23.0,-100.00,ENE,60,0.0,0.0,93,-99.99,,,-99.99,,2013-03-08 19:32:00,
2013-03-08 12:42:00,25.0,23.0,-100.00,ENE,60,0.0,0.0,93,-99.99,,,-99.99,,2013-03-08 19:42:00,
2013-03-08 12:52:00,27.0,25.0,-100.00,East,88,0.0,0.0,92,-99.99,,,-99.99,,2013-03-08 19:52:00,
2013-03-08 13:01:00,28.0,26.0,-100.00,East,88,0.0,0.0,92,-99.99,,,-99.99,,2013-03-08 20:01:00,
2013-03-08 13:11:00,28.0,26.0,-100.00,East,88,0.0,0.0,92,-99.99,,,-99.99,,2013-03-08 20:11:00,
2013-03-08 13:21:00,28.0,26.0,-100.00,East,88,0.0,0.0,92,-99.99,,,-99.99,,2013-03-08 20:21:00,
2013-03-08 13:32:00,28.0,26.0,-100.00,East,88,0.0,0.0,92,-99.99,,,-99.99,,2013-03-08 20:32:00,
2013-03-08 13:42:00,28.0,26.0,-100.00,East,88,0.0,0.0,92,-99.99,,,-99.99,,2013-03-08 20:42:00,
2013-03-08 13:53:00,28.0,26.0,-100.00,ENE,60,2.0,5.0,92,-99.99,,,-99.99,,2013-03-08 20:53:00,
2013-03-08 14:02:00,29.0,27.0,-100.00,East,99,0.0,0.0,92,-99.99,,,-99.99,,2013-03-08 21:02:00,
2013-03-08 14:11:00,29.0,27.0,-100.00,East,99,0.0,0.0,92,-99.99,,,-99.99,,2013-03-08 21:11:00,
2013-03-08 14:21:00,29.0,27.0,-100.00,NE,46,0.0,6.0,92,-99.99,,,-99.99,,2013-03-08 21:21:00,
2013-03-08 14:32:00,29.0,27.0,-100.00,NE,46,0.0,6.0,92,-99.99,,,-99.99,,2013-03-08 21:32:00,
2013-03-08 14:42:00,29.0,27.0,-100.00,NE,46,0.0,6.0,92,-99.99,,,-99.99,,2013-03-08 21:42:00,
2013-03-08 14:52:00,31.0,29.0,-100.00,ENE,73,0.0,0.0,92,-99.99,,,-99.99,,2013-03-08 21:52:00,
2013-03-08 15:01:00,31.0,29.0,-100.00,ENE,73,0.0,0.0,92,-99.99,,,-99.99,,2013-03-08 22:01:00,
2013-03-08 15:11:00,31.0,29.0,-100.00,ENE,73,0.0,0.0,92,-99.99,,,-99.99,,2013-03-08 22:11:00,
2013-03-08 15:22:00,31.0,29.0,-100.00,ENE,73,0.0,0.0,92,-99.99,,,-99.99,,2013-03-08 22:22:00,
2013-03-08 15:32:00,31.0,29.0,-100.00,NE,56,0.0,0.0,92,-99.99,,,-99.99,,2013-03-08 22:32:00,
2013-03-08 15:42:00,31.0,29.0,-100.00,NE,56,0.0,0.0,92,-99.99,,,-99.99,,2013-03-08 22:42:00,
2013-03-08 15:53:00,33.0,31.0,-100.00,East,97,0.0,0.0,91,-99.99,,,-99.99,,2013-03-08 22:53:00,
2013-03-08 16:01:00,33.0,31.0,-100.00,ENE,71,4.0,7.0,92,-99.99,,,-99.99,,2013-03-08 23:01:00,
2013-03-08 16:11:00,33.0,31.0,-100.00,ENE,71,4.0,7.0,92,-99.99,,,-99.99,,2013-03-08 23:11:00,
2013-03-08 16:21:00,33.0,31.0,-100.00,East,82,0.0,3.0,92,-99.99,,,-99.99,,2013-03-08 23:21:00,
2013-03-08 16:32:00,33.0,31.0,-100.00,East,82,0.0,3.0,92,-99.99,,,-99.99,,2013-03-08 23:32:00,
2013-03-08 16:42:00,33.0,31.0,-100.00,East,82,0.0,3.0,92,-99.99,,,-99.99,,2013-03-08 23:42:00,
2013-03-08 16:53:00,33.0,31.0,-100.00,ENE,64,0.0,5.0,94,-99.99,,,-99.99,,2013-03-08 23:53:00,
2013-03-08 17:02:00,32.0,30.0,-100.00,ESE,104,5.0,7.0,94,-99.99,,,-99.99,,2013-03-09 00:02:00,
2013-03-08 17:11:00,32.0,30.0,-100.00,ESE,104,5.0,7.0,94,-99.99,,,-99.99,,2013-03-09 00:11:00,
2013-03-08 17:22:00,32.0,31.0,-100.00,ESE,102,0.0,0.0,95,-99.99,,,-99.99,,2013-03-09 00:22:00,
2013-03-08 17:32:00,32.0,30.0,-100.00,ENE,77,2.0,4.0,94,-99.99,,,-99.99,,2013-03-09 00:32:00,
2013-03-08 17:42:00,32.0,30.0,-100.00,ENE,77,2.0,4.0,94,-99.99,,,-99.99,,2013-03-09 00:42:00,
2013-03-08 17:52:00,32.0,30.0,-100.00,NE,56,0.0,3.0,94,-99.99,,,-99.99,,2013-03-09 00:52:00,
2013-03-08 18:01:00,31.0,29.0,-100.00,East,80,0.0,0.0,94,-99.99,,,-99.99,,2013-03-09 01:01:00,
2013-03-08 18:12:00,30.0,29.0,-100.00,East,80,0.0,0.0,95,-99.99,,,-99.99,,2013-03-09 01:12:00,
2013-03-08 18:21:00,30.0,29.0,-100.00,East,80,0.0,0.0,95,-99.99,,,-99.99,,2013-03-09 01:21:00,
2013-03-08 18:32:00,29.0,28.0,-100.00,East,80,0.0,0.0,96,-99.99,,,-99.99,,2013-03-09 01:32:00,
2013-03-08 18:42:00,29.0,28.0,-100.00,East,80,0.0,0.0,96,-99.99,,,-99.99,,2013-03-09 01:42:00,
2013-03-08 18:51:00,29.0,28.0,-100.00,NE,49,0.0,0.0,97,-99.99,,,-99.99,,2013-03-09 01:51:00,
2013-03-08 18:52:00,29.0,28.0,-100.00,East,80,0.0,0.0,96,-99.99,,,-99.99,,2013-03-09 01:52:00,
2013-03-08 19:01:00,29.0,28.0,-100.00,East,80,0.0,0.0,96,-99.99,,,-99.99,,2013-03-09 02:01:00,
2013-03-08 19:11:00,29.0,28.0,-100.00,East,80,0.0,0.0,96,-99.99,,,-99.99,,2013-03-09 02:11:00,
2013-03-08 19:21:00,29.0,28.0,-100.00,NE,49,0.0,0.0,97,-99.99,,,-99.99,,2013-03-09 02:21:00,
2013-03-08 19:31:00,29.0,28.0,-100.00,NE,49,0.0,0.0,97,-99.99,,,-99.99,,2013-03-09 02:31:00,
2013-03-08 19:41:00,29.0,28.0,-100.00,NE,49,0.0,0.0,97,-99.99,,,-99.99,,2013-03-09 02:41:00,
2013-03-08 20:22:00,27.0,27.0,-100.00,ENE,66,0.0,0.0,98,-99.99,,,-99.99,,2013-03-09 03:22:00,
2013-03-08 20:32:00,27.0,27.0,-100.00,ENE,66,0.0,0.0,99,-99.99,,,-99.99,,2013-03-09 03:32:00,
2013-03-08 20:42:00,27.0,27.0,-100.00,ENE,66,0.0,0.0,99,-99.99,,,-99.99,,2013-03-09 03:42:00,
2013-03-08 20:52:00,27.0,27.0,-100.00,ENE,66,0.0,0.0,99,-99.99,,,-99.99,,2013-03-09 03:52:00,
2013-03-08 21:01:00,28.0,28.0,-100.00,ENE,66,0.0,0.0,99,-99.99,,,-99.99,,2013-03-09 04:01:00,
2013-03-08 21:11:00,28.0,28.0,-100.00,ENE,66,0.0,0.0,99,-99.99,,,-99.99,,2013-03-09 04:11:00,
2013-03-08 21:22:00,28.0,28.0,-100.00,ENE,66,0.0,0.0,99,-99.99,,,-99.99,,2013-03-09 04:22:00,
2013-03-08 21:32:00,28.0,28.0,-100.00,ENE,66,0.0,0.0,99,-99.99,,,-99.99,,2013-03-09 04:32:00,
2013-03-08 21:41:00,28.0,28.0,-100.00,ENE,66,0.0,0.0,99,-99.99,,,-99.99,,2013-03-09 04:41:00,
2013-03-08 21:51:00,28.0,28.0,-100.00,ENE,66,0.0,0.0,99,-99.99,,,-99.99,,2013-03-09 04:51:00,
2013-03-08 22:02:00,28.0,28.0,-100.00,ENE,66,0.0,0.0,99,-99.99,,,-99.99,,2013-03-09 05:02:00,
2013-03-08 22:42:00,28.0,28.0,-100.00,ENE,66,0.0,0.0,99,-99.99,,,-99.99,,2013-03-09 05:42:00,
2013-03-08 23:02:00,28.0,28.0,-100.00,ENE,66,0.0,0.0,99,-99.99,,,-99.99,,2013-03-09 06:02:00,
2013-03-08 23:11:00,28.0,28.0,-100.00,ENE,66,0.0,0.0,99,-99.99,,,-99.99,,2013-03-09 06:11:00,
2013-03-08 23:22:00,28.0,28.0,-100.00,ENE,66,0.0,0.0,99,-99.99,,,-99.99,,2013-03-09 06:22:00,
2013-03-08 23:32:00,28.0,28.0,-100.00,ENE,66,0.0,0.0,99,-99.99,,,-99.99,,2013-03-09 06:32:00,